Flag for U.S.A. Weather past 2 weeks in Rapid City, South Dakota, U.S.A.

Now
83 °F

Sunny.


Feels Like: 85 °F
Forecast: 66 / 85 °F
Wind: 14 mph from Northeast

Location: Ellsworth Air Force Base

Current Time: Jul 1, 2015 at 5:56:00 PM

Latest Report: Jul 1, 2015 at 4:58 PM


Visibility: 6 mi

Pressure: 29.91 "Hg

Humidity: 55%

Dew point: 65 °F

Location of Rapid CityLocation

Historic Weather in Rapid City — Graph

°F

Rapid City temperature yesterday

Maximum temperature yesterday: 85 °F (at 1:58 PM)
Minimum temperature yesterday: 68 °F (at 4:58 AM)
Average temperature yesterday: 76 °F

Past Weeks' High & Low Weather Summary

 TemperatureHumidityPressure
High89 °F (Jun 29, 4:58 PM)100% (Jun 17, 1:58 AM)30.20 "Hg (Jun 17, 1:58 AM)
Low53 °F (Jun 26, 4:58 AM)26% (Jun 29, 4:58 PM)29.58 "Hg (Jun 19, 8:58 PM)
Average70 °F72%29.98 "Hg
* Reported Jun 16 3:58 PM — Jul 1 3:58 PM, Rapid City, Weather by CustomWeather, © 2015

Note: Actual official high and low records may vary slightly from our data, if they occured in-between our weather recording intervals... More about our weather records

Advertising

Rapid City weather history for previous 24 hours

 ConditionsComfort  
Time TempWeatherWind HumidityBarometerVisibility
3:58 PM
Wed, Jul 1
83 °FSunny.13 mph54%29.93 "Hg5 mi
2:58 PM84 °FSunny.16 mph44%29.93 "Hg5 mi
1:58 PM83 °FSunny.20 mph42%29.93 "Hg5 mi
12:58 PM82 °FSunny.21 mph46%29.94 "Hg5 mi
11:58 AM81 °FSunny.22 mph47%29.93 "Hg5 mi
10:58 AM80 °FSunny.20 mph51%29.91 "Hg9 mi
9:58 AM79 °FSunny.18 mph50%29.91 "Hg10 mi
8:58 AM79 °FSunny.21 mph51%29.99 "Hg10 mi
7:58 AM77 °FSunny.13 mph53%29.88 "Hg10 mi
6:58 AM71 °FSunny.7 mph69%29.88 "Hg10 mi
5:58 AM65 °FPassing clouds.10 mph78%29.87 "Hg10 mi
4:58 AM64 °FClear.8 mph83%29.85 "Hg10 mi
3:58 AM65 °FPassing clouds.8 mph93%29.84 "Hg10 mi
2:58 AM66 °FPassing clouds.6 mph99%29.85 "Hg10 mi
1:58 AM67 °FPassing clouds.6 mph96%29.83 "Hg10 mi
12:58 AM68 °FClear.2 mph96%29.85 "Hg10 mi
11:58 PM
Tue, Jun 30
71 °FPassing clouds.6 mph88%29.85 "Hg10 mi
10:58 PM72 °FThundershowers. Passing clouds.9 mph93%29.84 "Hg10 mi
9:58 PM75 °FClear.3 mph81%29.85 "Hg10 mi
8:58 PM74 °FClear.6 mph91%29.83 "Hg10 mi
7:58 PM78 °FSunny.7 mph78%29.82 "Hg10 mi
6:58 PM81 °FSunny.5 mph65%29.81 "Hg10 mi
5:58 PM84 °FSunny.5 mph56%29.81 "Hg10 mi
Weather by CustomWeather, © 2015

See weather overviewHow to use our weather pages